SCP
0 -0 0 0 0 0 0 0 0 0 0 0 0 0 0 0 0 0 0 1 2 1 1 2 2 1 1 1 -0 -0 -0 -1 -1 -0 -1 -0 -0 -0 -0 1 2 3 4 5
0 0 0 0 0 0 0 0 0 0 0 0 0 0 0 0 0 0 0 0 1 1 1 1 2 3 1 2 1 1 -0 -0 0 0 -0 -0 0 1 1 1 3 4 4 6
0 0 0 0 0 0 0 0 0 0 0 0 0 0 0 1 0 0 0 0 0 2 2 1 3 4 3 2 3 2 1 0 0 0 -1 -0 1 1 2 3 4 4 4 5
0 0 0 0 0 0 0 0 0 0 0 0 0 0 0 0 0 0 0 0 1 0 1 2 1 3 5 4 4 3 2 2 1 0 0 1 1 1 2 4 4 4 5 4
0 0 0 0 0 0 0 0 0 0 0 0 0 0 0 -0 0 0 0 0 1 0 0 2 2 4 5 6 4 4 3 4 3 2 3 3 3 3 3 3 3 4 3 3
0 0 0 0 0 0 0 0 0 1 0 0 0 0 0 0 0 0 0 0 1 0 0 1 5 4 8 6 5 4 4 5 7 6 6 5 5 4 4 4 3 3 3 3
0 0 0 0 1 1 1 1 1 1 1 1 1 1 1 0 1 0 0 0 0 4 5 3 7 6 7 9 7 6 7 7 9 7 6 5 5 4 5 3 3 4 4 2
0 0 0 0 1 0 1 1 1 1 1 1 1 1 0 0 0 1 2 0 2 7 9 6 9 9 12 10 10 9 8 7 7 7 6 5 5 7 7 4 4 5 4 2
0 0 0 1 3 2 2 1 1 1 0 0 0 0 0 2 3 2 2 5 4 5 9 11 19 15 17 17 11 10 8 8 8 7 8 6 6 9 5 4 3 3 2 2
0 1 1 1 1 1 1 1 3 3 2 2 0 2 3 3 2 3 5 7 8 10 11 17 20 20 23 15 11 10 11 11 10 9 7 5 4 3 3 3 3 2 2 3
0 1 1 1 1 1 1 2 2 2 2 2 3 5 6 7 7 8 8 12 13 12 12 18 20 21 22 16 13 14 9 8 7 5 5 1 0 1 2 0 1 3 5 4
2 2 2 2 1 1 1 1 1 1 1 1 1 1 1 5 7 6 7 6 7 7 7 8 8 8 8 8 6 5 4 4 4 4 2 0 0 0 0 0 0 0 0 1
0 0 0 0 0 0 0 0 0 0 0 0 0 0 0 0 1 3 5 7 6 5 5 4 3 3 3 3 3 1 2 3 2 2 2 2 2 0 0 0 0 0 0 0
0 0 0 0 0 0 0 0 0 0 0 0 0 0 0 0 0 1 2 2 2 1 2 2 2 3 3 3 3 4 2 1 1 1 1 1 1 1 1 0 0 0 0 0
-0 0 0 0 0 0 0 0 0 0 0 0 0 0 0 0 0 0 1 1 1 1 1 1 2 1 2 2 2 2 2 1 1 1 1 2 1 0 0 0 0 0 0 0
-0 -0 0 0 0 0 0 0 0 0 0 0 0 0 0 0 0 0 1 1 1 1 2 2 3 3 2 1 1 2 1 0 1 2 1 1 1 0 0 1 0 0 0 0
-0 0 0 0 0 0 0 0 0 0 0 0 0 0 0 0 0 0 1 2 3 2 1 1 2 2 2 0 1 1 1 1 0 0 0 0 0 0 0 0 0 0 0 0
0 0 0 0 0 0 0 0 0 0 0 0 0 0 0 0 0 0 0 0 1 1 1 1 1 1 1 1 1 1 0 0 0 0 0 1 0 0 0 0 0 0 0 0
0 0 -0 -0 -0 0 0 0 0 0 0 0 0 -0 0 0 0 0 0 0 0 0 0 0 0 1 2 0 0 0 0 0 0 0 0 0 0 0 0 0 0 0 0 0
-0 -0 -0 -0 -0 0 0 0 0 0 0 0 0 0 0 0 0 0 0 0 0 0 0 0 0 0 0 0 0 0 0 0 0 0 0 0 0 0 0 0 0 0 0 0
-0 0 0 -0 -0 0 0 0 0 0 0 0 0 0 0 0 0 0 0 0 0 0 0 0 0 0 0 0 0 0 0 0 0 0 0 0 0 0 0 0 0 0 0 0
0 -0 -0 -0 -0 -0 -0 -0 0 0 0 0 0 0 0 0 0 0 0 0 0 0 0 0 0 0 0 0 0 0 0 0 0 0 0 0 0 0 0 0 0 0 0 0
-0 -0 -0 -0 -0 0 0 0 0 0 0 0 0 0 0 0 0 0 0 0 0 0 0 0 0 0 0 0 0 0 0 0 0 0 0 0 0 0 0 0 0 0 0 0
-0 -0 -0 -0 -0 -0 -0 -0 -0 -0 -0 -0 0 0 0 0 0 0 0 0 0 0 0 0 0 0 0 0 0 0 0 0 0 0 0 0 0 0 0 0 0 0 0 0
-0 0 0 0 -0 -0 -0 -0 -0 0 -0 -0 -0 -0 -0 0 0 -0 0 0 0 0 0 0 0 0 0 0 0 0 0 0 0 0 0 0 0 0 0 0 0 0 0 0
0 0 0 0 0 0 0 0 0 0 0 0 0 0 0 0 0 0 0 -0 -0 -0 -0 0 0 0 0 0 0 0 0 0 0 0 0 0 0 0 0 0 0 0 0 0
0 0 0 0 0 0 0 0 0 0 0 0 0 0 0 0 0 0 0 0 0 0 0 0 0 -0 0 0 0 0 0 0 0 0 0 0 0 0 0 0 0 0 0 0
Wind_Speed_500mb
57 60 52 53 59 56 53 51 44 45 42 45 47 25 33 31 19 22 23 32 38 29 28 80 91 101 102 95 95 88 90 90 92 93 91 90 87 86 83 83 86 85 81 82
51 56 59 54 54 55 59 57 57 49 47 37 35 48 33 56 51 40 42 29 35 38 35 41 72 91 106 98 96 92 92 96 87 85 87 89 86 82 80 79 86 86 86 81
40 50 48 52 56 48 47 50 44 41 45 30 31 30 25 28 34 46 60 50 51 47 50 52 50 78 97 105 92 94 91 95 92 86 88 87 80 76 79 80 81 81 79 76
31 34 45 34 41 50 44 37 49 46 35 34 36 49 55 51 44 42 33 48 41 38 39 50 54 63 73 91 93 88 95 87 88 90 91 87 77 74 73 78 80 80 77 70
28 33 34 41 40 36 33 44 39 36 31 35 49 54 55 62 61 52 59 52 59 50 60 47 50 65 73 74 93 94 89 91 86 87 86 81 75 72 69 66 70 71 67 61
31 40 50 33 41 19 8 17 14 16 13 16 21 15 17 63 62 58 59 54 47 53 56 69 66 70 76 85 82 92 92 95 77 74 75 75 72 66 61 62 57 54 57 58
28 28 36 2 26 18 22 13 11 12 12 16 17 23 42 56 62 63 58 66 55 50 55 47 73 75 79 82 80 81 75 73 73 74 74 68 63 58 57 53 51 50 50 48
25 29 24 32 22 10 2 8 7 8 12 18 29 40 42 47 49 24 24 35 40 34 19 44 69 73 79 77 68 67 64 63 65 68 68 69 61 53 46 41 44 42 39 40
16 16 25 5 28 22 16 9 8 5 13 16 27 44 45 7 6 5 2 1 8 21 22 35 49 60 71 63 61 63 63 62 62 61 57 50 48 48 44 42 36 35 36 35
18 4 23 34 27 25 17 17 26 26 21 23 12 11 24 17 9 11 21 26 20 34 39 34 39 47 54 56 59 60 63 65 64 59 55 44 39 39 38 38 35 26 23 25
34 26 28 25 28 25 34 36 37 45 44 45 45 47 36 31 37 35 34 34 32 35 37 33 40 50 54 62 63 66 60 58 55 47 44 43 38 30 30 31 29 23 22 25
2 23 23 37 45 47 55 61 50 45 46 43 42 50 54 52 47 44 47 44 41 37 35 33 36 39 44 52 58 60 55 48 42 46 37 34 39 37 31 27 29 25 22 19
8 61 60 59 69 62 56 56 54 57 47 46 41 46 44 43 45 41 44 43 41 36 33 33 34 37 38 44 41 33 38 39 33 37 32 34 39 32 33 30 26 25 24 21
56 66 30 28 57 53 57 57 55 47 40 40 34 34 35 39 36 37 34 33 33 35 35 36 38 37 32 36 38 36 31 29 41 32 38 28 22 23 20 26 22 25 22 19
68 49 42 36 38 40 45 49 55 46 37 30 28 31 30 32 28 29 28 26 27 27 29 23 31 33 36 27 33 51 42 33 30 35 38 36 27 24 29 24 29 9 18 19
51 53 48 53 50 46 39 29 34 38 43 44 32 24 20 22 22 25 26 25 25 24 22 19 22 28 24 29 26 30 34 36 34 27 30 29 24 22 19 35 35 18 15 14
45 38 39 45 42 41 42 41 44 26 7 26 30 24 13 10 17 17 21 22 23 19 22 26 27 23 22 23 25 22 18 32 30 37 30 24 19 19 21 28 27 22 22 16
41 41 43 37 29 28 28 33 31 27 31 12 10 16 12 11 12 13 8 8 10 8 9 15 14 17 19 16 14 15 16 22 32 25 33 30 22 18 16 17 31 31 35 22
30 35 34 32 29 26 27 24 20 23 26 31 20 14 9 12 10 8 15 11 13 18 17 17 12 19 21 20 28 8 13 31 20 26 34 34 24 18 12 9 10 13 20 28
32 27 27 26 23 22 20 20 18 16 24 22 15 25 20 20 12 9 14 18 15 14 13 19 11 9 15 25 25 9 20 24 17 19 20 17 17 22 14 10 1 12 17 20
40 38 35 48 43 37 30 28 25 28 23 23 23 22 17 15 15 10 15 19 14 19 13 16 12 9 12 6 14 2 8 9 12 5 13 17 13 12 13 17 20 15 18 18
36 33 34 37 38 34 32 32 30 28 24 21 21 18 18 10 14 22 18 23 13 14 14 18 9 12 7 13 5 8 6 5 11 17 12 10 12 16 13 18 23 21 24 29
33 30 28 26 25 23 25 23 19 16 19 16 15 16 19 21 22 18 17 17 19 14 11 13 13 3 12 9 6 2 1 2 6 5 7 8 8 11 14 26 25 25 25 29
25 25 22 24 16 14 13 7 10 15 8 14 13 16 17 15 16 16 14 13 9 7 6 10 16 11 6 4 5 6 7 10 9 10 11 10 9 14 16 17 21 27 27 26
26 22 28 23 11 25 9 13 5 6 11 8 6 6 8 8 11 5 5 9 11 2 11 9 4 11 8 4 10 15 16 18 15 12 5 6 12 15 19 20 23 27 28 25
34 34 26 35 33 26 26 22 22 20 21 21 20 19 23 23 8 17 6 8 14 14 19 20 8 7 11 22 20 15 15 14 11 14 16 13 15 18 19 17 21 18 20 23
25 27 27 26 27 30 27 25 19 22 14 17 18 15 19 15 12 14 15 18 18 20 21 11 14 11 17 14 14 17 20 25 19 12 14 14 15 13 15 17 19 19 21 22
Wind_Direction_500mb
220 247 228 236 216 217 224 242 240 237 240 223 253 228 194 227 209 229 232 186 180 195 217 193 197 199 198 200 200 205 207 214 218 223 227 229 230 233 235 233 239 242 243 242
233 223 241 241 228 220 221 227 245 253 252 249 243 253 248 182 230 211 216 222 196 203 211 222 203 206 202 198 203 200 209 215 220 221 224 227 228 227 230 229 234 241 243 242
238 232 235 238 239 237 219 220 231 241 251 264 258 262 277 246 235 220 206 212 232 203 221 217 214 212 205 201 201 202 209 214 216 220 223 225 226 227 226 228 237 241 245 241
235 230 236 239 228 238 252 240 219 223 235 251 264 270 272 271 279 279 238 217 223 239 221 220 207 202 202 202 198 205 206 213 210 215 219 219 223 226 229 232 234 241 241 245
230 228 240 245 237 231 236 245 252 262 256 237 227 241 256 260 260 256 253 265 232 237 248 235 209 202 203 201 201 203 208 208 209 212 211 214 221 228 232 230 235 236 245 248
215 228 226 219 227 189 166 246 325 359 340 323 341 299 281 237 253 257 257 256 247 238 242 259 216 198 203 202 203 202 206 206 203 201 206 217 225 223 226 231 235 234 243 246
219 226 237 312 156 133 212 183 77 22 348 325 293 283 304 308 311 242 262 248 253 241 228 230 200 192 198 195 199 199 201 195 196 197 205 217 221 221 225 223 228 232 235 241
224 211 224 163 153 202 56 110 81 26 330 317 300 294 284 281 281 267 272 256 228 214 215 197 192 190 191 189 191 188 191 185 186 197 205 211 215 217 208 215 220 218 226 235
248 243 110 180 72 78 137 124 79 352 312 307 292 278 268 211 93 190 308 117 209 198 180 170 172 193 183 180 182 179 175 177 184 190 192 206 211 203 203 206 216 217 225 234
246 222 118 130 132 134 127 126 60 51 38 20 258 71 68 63 137 122 109 104 123 127 131 145 162 163 168 167 167 170 169 168 175 183 188 196 200 206 202 207 210 213 207 214
230 149 111 128 127 132 118 93 78 65 60 61 64 50 64 70 77 96 97 101 115 122 121 129 145 151 154 155 161 159 168 172 179 178 181 189 189 184 192 195 194 197 207 223
15 359 315 141 133 107 88 79 83 80 73 68 77 75 58 61 70 77 92 103 105 103 114 128 146 156 160 159 174 176 175 173 172 165 171 175 176 172 175 180 191 198 209 222
83 79 22 91 91 91 85 87 76 72 72 78 74 70 76 60 63 72 88 94 96 110 118 120 129 141 151 164 172 153 154 165 160 164 160 172 175 186 177 174 179 195 198 194
101 108 59 45 72 77 78 77 82 75 70 60 64 73 83 74 75 66 76 95 101 110 116 119 128 124 125 121 121 137 143 140 145 149 141 171 169 163 177 182 183 206 210 218
142 137 130 105 90 81 81 82 76 64 53 45 40 47 62 69 71 75 81 92 100 104 109 118 128 120 122 138 166 149 154 146 155 158 158 157 185 175 186 161 175 178 186 204
87 90 95 89 93 82 76 73 73 63 55 28 24 23 33 65 68 66 74 88 107 109 132 128 122 125 141 179 157 147 154 157 151 165 152 155 176 185 194 168 180 209 200 219
107 102 100 92 89 82 77 77 70 61 57 40 13 10 6 40 77 69 54 82 114 122 122 131 132 136 154 161 143 151 167 169 150 166 163 174 180 191 199 202 203 207 195 228
100 102 94 95 98 88 84 81 66 62 54 26 33 19 34 46 30 7 330 169 111 69 133 154 156 155 141 161 172 179 185 188 173 186 174 171 178 184 195 217 203 189 192 207
98 98 96 93 91 90 85 87 65 56 42 29 80 80 40 46 78 94 120 152 156 183 221 210 178 160 159 188 178 178 227 167 149 150 172 190 167 182 170 171 145 167 196 197
77 79 80 86 86 75 83 77 73 57 51 53 51 48 68 52 55 50 92 95 126 132 128 126 129 149 166 205 184 78 112 149 166 165 172 166 174 191 204 181 234 183 188 200
67 72 73 80 88 80 75 77 76 73 62 55 50 47 49 33 29 97 80 77 81 106 109 92 135 156 139 153 179 193 194 188 123 100 182 192 192 210 228 225 225 215 212 224
68 67 67 75 70 75 73 71 62 52 47 58 57 37 31 59 67 82 92 65 87 38 77 117 112 118 106 155 43 168 157 127 193 204 230 217 254 235 239 220 216 239 223 209
70 70 76 70 66 63 58 61 55 53 53 44 25 36 43 67 66 71 67 56 68 72 68 53 49 75 155 78 9 30 262 271 253 222 243 194 228 255 252 247 236 225 230 240
61 60 59 86 75 61 62 79 83 92 102 50 59 53 62 70 76 49 69 70 43 59 58 64 30 20 226 302 283 237 243 255 249 235 239 241 262 263 264 264 246 235 239 242
81 48 51 48 80 36 77 93 51 181 124 122 93 65 82 34 84 57 87 47 17 86 281 306 0 24 4 310 284 285 273 257 236 211 215 256 270 279 269 262 260 258 258 261
54 62 56 44 39 47 8 41 57 17 42 36 34 28 4 55 28 25 74 357 338 275 312 241 294 310 306 299 318 298 318 310 282 272 249 232 245 250 264 270 267 272 258 260
47 40 38 36 25 19 17 10 4 12 11 0 345 329 343 352 5 355 341 333 346 339 354 332 354 203 313 320 324 326 293 331 344 274 281 315 301 281 265 260 256 251 254 256
Wind_Speed_850mb
57 60 52 53 59 56 53 51 44 45 42 45 47 25 33 31 19 22 23 32 38 29 28 80 91 101 102 95 95 88 90 90 92 93 91 90 87 86 83 83 86 85 81 82
51 56 59 54 54 55 59 57 57 49 47 37 35 48 33 56 51 40 42 29 35 38 35 41 72 91 106 98 96 92 92 96 87 85 87 89 86 82 80 79 86 86 86 81
40 50 48 52 56 48 47 50 44 41 45 30 31 30 25 28 34 46 60 50 51 47 50 52 50 78 97 105 92 94 91 95 92 86 88 87 80 76 79 80 81 81 79 76
31 34 45 34 41 50 44 37 49 46 35 34 36 49 55 51 44 42 33 48 41 38 39 50 54 63 73 91 93 88 95 87 88 90 91 87 77 74 73 78 80 80 77 70
28 33 34 41 40 36 33 44 39 36 31 35 49 54 55 62 61 52 59 52 59 50 60 47 50 65 73 74 93 94 89 91 86 87 86 81 75 72 69 66 70 71 67 61
31 40 50 33 41 19 8 17 14 16 13 16 21 15 17 63 62 58 59 54 47 53 56 69 66 70 76 85 82 92 92 95 77 74 75 75 72 66 61 62 57 54 57 58
28 28 36 2 26 18 22 13 11 12 12 16 17 23 42 56 62 63 58 66 55 50 55 47 73 75 79 82 80 81 75 73 73 74 74 68 63 58 57 53 51 50 50 48
25 29 24 32 22 10 2 8 7 8 12 18 29 40 42 47 49 24 24 35 40 34 19 44 69 73 79 77 68 67 64 63 65 68 68 69 61 53 46 41 44 42 39 40
16 16 25 5 28 22 16 9 8 5 13 16 27 44 45 7 6 5 2 1 8 21 22 35 49 60 71 63 61 63 63 62 62 61 57 50 48 48 44 42 36 35 36 35
18 4 23 34 27 25 17 17 26 26 21 23 12 11 24 17 9 11 21 26 20 34 39 34 39 47 54 56 59 60 63 65 64 59 55 44 39 39 38 38 35 26 23 25
34 26 28 25 28 25 34 36 37 45 44 45 45 47 36 31 37 35 34 34 32 35 37 33 40 50 54 62 63 66 60 58 55 47 44 43 38 30 30 31 29 23 22 25
2 23 23 37 45 47 55 61 50 45 46 43 42 50 54 52 47 44 47 44 41 37 35 33 36 39 44 52 58 60 55 48 42 46 37 34 39 37 31 27 29 25 22 19
8 61 60 59 69 62 56 56 54 57 47 46 41 46 44 43 45 41 44 43 41 36 33 33 34 37 38 44 41 33 38 39 33 37 32 34 39 32 33 30 26 25 24 21
56 66 30 28 57 53 57 57 55 47 40 40 34 34 35 39 36 37 34 33 33 35 35 36 38 37 32 36 38 36 31 29 41 32 38 28 22 23 20 26 22 25 22 19
68 49 42 36 38 40 45 49 55 46 37 30 28 31 30 32 28 29 28 26 27 27 29 23 31 33 36 27 33 51 42 33 30 35 38 36 27 24 29 24 29 9 18 19
51 53 48 53 50 46 39 29 34 38 43 44 32 24 20 22 22 25 26 25 25 24 22 19 22 28 24 29 26 30 34 36 34 27 30 29 24 22 19 35 35 18 15 14
45 38 39 45 42 41 42 41 44 26 7 26 30 24 13 10 17 17 21 22 23 19 22 26 27 23 22 23 25 22 18 32 30 37 30 24 19 19 21 28 27 22 22 16
41 41 43 37 29 28 28 33 31 27 31 12 10 16 12 11 12 13 8 8 10 8 9 15 14 17 19 16 14 15 16 22 32 25 33 30 22 18 16 17 31 31 35 22
30 35 34 32 29 26 27 24 20 23 26 31 20 14 9 12 10 8 15 11 13 18 17 17 12 19 21 20 28 8 13 31 20 26 34 34 24 18 12 9 10 13 20 28
32 27 27 26 23 22 20 20 18 16 24 22 15 25 20 20 12 9 14 18 15 14 13 19 11 9 15 25 25 9 20 24 17 19 20 17 17 22 14 10 1 12 17 20
40 38 35 48 43 37 30 28 25 28 23 23 23 22 17 15 15 10 15 19 14 19 13 16 12 9 12 6 14 2 8 9 12 5 13 17 13 12 13 17 20 15 18 18
36 33 34 37 38 34 32 32 30 28 24 21 21 18 18 10 14 22 18 23 13 14 14 18 9 12 7 13 5 8 6 5 11 17 12 10 12 16 13 18 23 21 24 29
33 30 28 26 25 23 25 23 19 16 19 16 15 16 19 21 22 18 17 17 19 14 11 13 13 3 12 9 6 2 1 2 6 5 7 8 8 11 14 26 25 25 25 29
25 25 22 24 16 14 13 7 10 15 8 14 13 16 17 15 16 16 14 13 9 7 6 10 16 11 6 4 5 6 7 10 9 10 11 10 9 14 16 17 21 27 27 26
26 22 28 23 11 25 9 13 5 6 11 8 6 6 8 8 11 5 5 9 11 2 11 9 4 11 8 4 10 15 16 18 15 12 5 6 12 15 19 20 23 27 28 25
34 34 26 35 33 26 26 22 22 20 21 21 20 19 23 23 8 17 6 8 14 14 19 20 8 7 11 22 20 15 15 14 11 14 16 13 15 18 19 17 21 18 20 23
25 27 27 26 27 30 27 25 19 22 14 17 18 15 19 15 12 14 15 18 18 20 21 11 14 11 17 14 14 17 20 25 19 12 14 14 15 13 15 17 19 19 21 22
Wind_Direction_850mb
220 247 228 236 216 217 224 242 240 237 240 223 253 228 194 227 209 229 232 186 180 195 217 193 197 199 198 200 200 205 207 214 218 223 227 229 230 233 235 233 239 242 243 242
233 223 241 241 228 220 221 227 245 253 252 249 243 253 248 182 230 211 216 222 196 203 211 222 203 206 202 198 203 200 209 215 220 221 224 227 228 227 230 229 234 241 243 242
238 232 235 238 239 237 219 220 231 241 251 264 258 262 277 246 235 220 206 212 232 203 221 217 214 212 205 201 201 202 209 214 216 220 223 225 226 227 226 228 237 241 245 241
235 230 236 239 228 238 252 240 219 223 235 251 264 270 272 271 279 279 238 217 223 239 221 220 207 202 202 202 198 205 206 213 210 215 219 219 223 226 229 232 234 241 241 245
230 228 240 245 237 231 236 245 252 262 256 237 227 241 256 260 260 256 253 265 232 237 248 235 209 202 203 201 201 203 208 208 209 212 211 214 221 228 232 230 235 236 245 248
215 228 226 219 227 189 166 246 325 359 340 323 341 299 281 237 253 257 257 256 247 238 242 259 216 198 203 202 203 202 206 206 203 201 206 217 225 223 226 231 235 234 243 246
219 226 237 312 156 133 212 183 77 22 348 325 293 283 304 308 311 242 262 248 253 241 228 230 200 192 198 195 199 199 201 195 196 197 205 217 221 221 225 223 228 232 235 241
224 211 224 163 153 202 56 110 81 26 330 317 300 294 284 281 281 267 272 256 228 214 215 197 192 190 191 189 191 188 191 185 186 197 205 211 215 217 208 215 220 218 226 235
248 243 110 180 72 78 137 124 79 352 312 307 292 278 268 211 93 190 308 117 209 198 180 170 172 193 183 180 182 179 175 177 184 190 192 206 211 203 203 206 216 217 225 234
246 222 118 130 132 134 127 126 60 51 38 20 258 71 68 63 137 122 109 104 123 127 131 145 162 163 168 167 167 170 169 168 175 183 188 196 200 206 202 207 210 213 207 214
230 149 111 128 127 132 118 93 78 65 60 61 64 50 64 70 77 96 97 101 115 122 121 129 145 151 154 155 161 159 168 172 179 178 181 189 189 184 192 195 194 197 207 223
15 359 315 141 133 107 88 79 83 80 73 68 77 75 58 61 70 77 92 103 105 103 114 128 146 156 160 159 174 176 175 173 172 165 171 175 176 172 175 180 191 198 209 222
83 79 22 91 91 91 85 87 76 72 72 78 74 70 76 60 63 72 88 94 96 110 118 120 129 141 151 164 172 153 154 165 160 164 160 172 175 186 177 174 179 195 198 194
101 108 59 45 72 77 78 77 82 75 70 60 64 73 83 74 75 66 76 95 101 110 116 119 128 124 125 121 121 137 143 140 145 149 141 171 169 163 177 182 183 206 210 218
142 137 130 105 90 81 81 82 76 64 53 45 40 47 62 69 71 75 81 92 100 104 109 118 128 120 122 138 166 149 154 146 155 158 158 157 185 175 186 161 175 178 186 204
87 90 95 89 93 82 76 73 73 63 55 28 24 23 33 65 68 66 74 88 107 109 132 128 122 125 141 179 157 147 154 157 151 165 152 155 176 185 194 168 180 209 200 219
107 102 100 92 89 82 77 77 70 61 57 40 13 10 6 40 77 69 54 82 114 122 122 131 132 136 154 161 143 151 167 169 150 166 163 174 180 191 199 202 203 207 195 228
100 102 94 95 98 88 84 81 66 62 54 26 33 19 34 46 30 7 330 169 111 69 133 154 156 155 141 161 172 179 185 188 173 186 174 171 178 184 195 217 203 189 192 207
98 98 96 93 91 90 85 87 65 56 42 29 80 80 40 46 78 94 120 152 156 183 221 210 178 160 159 188 178 178 227 167 149 150 172 190 167 182 170 171 145 167 196 197
77 79 80 86 86 75 83 77 73 57 51 53 51 48 68 52 55 50 92 95 126 132 128 126 129 149 166 205 184 78 112 149 166 165 172 166 174 191 204 181 234 183 188 200
67 72 73 80 88 80 75 77 76 73 62 55 50 47 49 33 29 97 80 77 81 106 109 92 135 156 139 153 179 193 194 188 123 100 182 192 192 210 228 225 225 215 212 224
68 67 67 75 70 75 73 71 62 52 47 58 57 37 31 59 67 82 92 65 87 38 77 117 112 118 106 155 43 168 157 127 193 204 230 217 254 235 239 220 216 239 223 209
70 70 76 70 66 63 58 61 55 53 53 44 25 36 43 67 66 71 67 56 68 72 68 53 49 75 155 78 9 30 262 271 253 222 243 194 228 255 252 247 236 225 230 240
61 60 59 86 75 61 62 79 83 92 102 50 59 53 62 70 76 49 69 70 43 59 58 64 30 20 226 302 283 237 243 255 249 235 239 241 262 263 264 264 246 235 239 242
81 48 51 48 80 36 77 93 51 181 124 122 93 65 82 34 84 57 87 47 17 86 281 306 0 24 4 310 284 285 273 257 236 211 215 256 270 279 269 262 260 258 258 261
54 62 56 44 39 47 8 41 57 17 42 36 34 28 4 55 28 25 74 357 338 275 312 241 294 310 306 299 318 298 318 310 282 272 249 232 245 250 264 270 267 272 258 260
47 40 38 36 25 19 17 10 4 12 11 0 345 329 343 352 5 355 341 333 346 339 354 332 354 203 313 320 324 326 293 331 344 274 281 315 301 281 265 260 256 251 254 256